Flag for Norway Weather past 2 weeks in Randaberg, Norway

Now
76 °F

Passing clouds.


Feels Like: 78 °F
Forecast: 62 / 73 °F
Wind: 3 mph from Northwest

Location: Stavanger / Sola

Current Time: Jul 24, 2014 at 3:41:31 PM

Latest Report: Jul 24, 2014 at 2:00 PM


Visibility: 18 mi

Pressure: 30.21 "Hg

Humidity: 65%

Dew point: 64 °F

Location of RandabergLocation

Historic Weather in Randaberg — Graph

°F

Randaberg temperature yesterday

Maximum temperature yesterday: 80 °F (at 5:00 PM)
Minimum temperature yesterday: 62 °F (at 5:00 AM)
Average temperature yesterday: 71 °F

Past Weeks' High & Low Weather Summary

 TemperatureHumidityPressure
High84 °F (Jul 20, 3:00 PM)96% (Jul 10, 5:00 AM)30.32 "Hg (Jul 10, 5:00 AM)
Low56 °F (Jul 19, 5:00 AM)37% (Jul 10, 1:00 PM)29.65 "Hg (Jul 14, 2:00 AM)
Average68 °F70%30.03 "Hg
* Reported Jul 9 3:00 PM — Jul 24 2:00 PM, Randaberg, Weather by CustomWeather, © 2014

Note: Actual official high and low records may vary slightly from our data, if they occured in-between our weather recording intervals... More about our weather records

Advertising

Randaberg weather history for previous 24 hours

 ConditionsComfort  
Time TempWeatherWind HumidityBarometerVisibility
2:00 PM
Jul 24
76 °FPassing clouds.3 mph65%30.21 "Hg18 mi
1:00 PM79 °FSunny.5 mph62%30.20 "Hg15 mi
12:00 PM83 °FSunny.5 mph58%30.20 "Hg19 mi
11:00 AM80 °FSunny.2 mph59%30.20 "Hg18 mi
10:00 AM76 °FSunny.1 mph65%30.20 "Hg19 mi
9:00 AM72 °FSunny.1 mph77%30.20 "Hg11 mi
8:00 AM70 °FSunny.1 mph84%30.21 "Hg9 mi
7:00 AM66 °FSunny.1 mph90%30.21 "Hg7 mi
6:00 AM65 °FPassing clouds.1 mph94%30.21 "Hg4 mi
5:00 AM63 °FPassing clouds.1 mph94%30.22 "Hg6 mi
4:00 AM64 °FPassing clouds.No wind94%30.23 "Hg6 mi
3:00 AM65 °FMild.1 mph94%30.23 "Hg5 mi
2:00 AM64 °FMild.2 mph93%30.24 "Hg4 mi
1:00 AM65 °FClear.1 mph91%30.24 "Hg6 mi
12:00 AM66 °FClear.2 mph90%30.25 "Hg7 mi
11:00 PM
Jul 23
68 °FClear.1 mph87%30.25 "Hg9 mi
10:00 PM69 °FSunny.2 mph83%30.26 "Hg10 mi
9:00 PM72 °FSunny.2 mph77%30.25 "Hg12 mi
8:00 PM73 °FSunny.2 mph77%30.26 "Hg11 mi
7:00 PM74 °FSunny.2 mph73%30.26 "Hg12 mi
6:00 PM75 °FSunny.3 mph73%30.27 "Hg13 mi
5:00 PM80 °FSunny.3 mph62%30.27 "Hg14 mi
4:00 PM80 °FSunny.3 mph64%30.28 "Hg18 mi
Weather by CustomWeather, © 2014

See weather overviewHow to use our weather pages